TimeMDT,TemperatureF,Dew PointF,Humidity,Sea Level PressureIn,VisibilityMPH,Wind Direction,Wind SpeedMPH,Gust SpeedMPH,PrecipitationIn,Events,Conditions,WindDirDegrees,DateUTC
12:53 AM,59.0,43.0,55,29.99,10.0,East,3.5,-,N/A,,Clear,100,2013-08-18 06:53:00
1:53 AM,55.9,42.1,60,29.99,10.0,Calm,Calm,-,N/A,,Clear,0,2013-08-18 07:53:00
2:53 AM,53.1,39.9,61,30.01,10.0,Calm,Calm,-,N/A,,Clear,0,2013-08-18 08:53:00
3:53 AM,52.0,45.0,77,30.02,10.0,Calm,Calm,-,N/A,,Clear,0,2013-08-18 09:53:00
4:53 AM,50.0,39.9,68,30.03,10.0,Calm,Calm,-,N/A,,Clear,0,2013-08-18 10:53:00
5:53 AM,48.0,37.9,68,30.06,10.0,Calm,Calm,-,N/A,,Clear,0,2013-08-18 11:53:00
6:53 AM,48.9,39.0,69,30.09,10.0,Calm,Calm,-,N/A,,Clear,0,2013-08-18 12:53:00
7:53 AM,55.9,39.9,55,30.09,10.0,Calm,Calm,-,N/A,,Clear,0,2013-08-18 13:53:00
8:53 AM,63.0,41.0,45,30.08,10.0,Calm,Calm,-,N/A,,Clear,0,2013-08-18 14:53:00
9:53 AM,75.0,41.0,29,30.05,10.0,NNE,3.5,-,N/A,,Clear,20,2013-08-18 15:53:00
10:53 AM,81.0,39.9,23,30.04,10.0,Calm,Calm,-,N/A,,Clear,0,2013-08-18 16:53:00
11:53 AM,84.9,39.9,20,30.03,10.0,NW,9.2,-,N/A,,Clear,310,2013-08-18 17:53:00
12:53 PM,87.1,39.9,19,29.99,10.0,WNW,4.6,-,N/A,,Partly Cloudy,300,2013-08-18 18:53:00
1:53 PM,88.0,39.0,18,29.97,10.0,Calm,Calm,-,N/A,,Partly Cloudy,0,2013-08-18 19:53:00
2:53 PM,90.0,37.0,15,29.96,10.0,WNW,11.5,16.1,N/A,,Partly Cloudy,290,2013-08-18 20:53:00
3:53 PM,91.0,36.0,14,29.95,10.0,WNW,13.8,24.2,N/A,,Clear,290,2013-08-18 21:53:00
4:53 PM,87.1,37.0,17,29.95,10.0,NW,8.1,-,N/A,,Mostly Cloudy,310,2013-08-18 22:53:00
6:53 PM,81.0,41.0,24,29.95,10.0,West,4.6,-,N/A,,Partly Cloudy,270,2013-08-19 00:53:00
7:53 PM,79.0,44.1,29,29.94,10.0,SSE,6.9,-,N/A,,Partly Cloudy,160,2013-08-19 01:53:00
8:30 PM,75.2,42.8,31,30.17,10.0,SW,4.6,-,N/A,Thunderstorm,Thunderstorm,230,2013-08-19 02:30:00
8:53 PM,81.0,36.0,20,29.94,10.0,NE,9.2,49.5,0.00,Rain,Light Rain,50,2013-08-19 02:53:00
9:14 PM,75.2,44.6,34,30.18,10.0,SE,9.2,-,0.00,,Mostly Cloudy,130,2013-08-19 03:14:00
9:53 PM,73.9,43.0,33,29.96,10.0,ESE,6.9,-,0.00,,Partly Cloudy,120,2013-08-19 03:53:00
10:53 PM,69.1,46.9,45,29.98,10.0,ENE,5.8,-,N/A,,Clear,70,2013-08-19 04:53:00
11:53 PM,68.0,46.9,47,29.99,10.0,East,5.8,-,N/A,,Clear,80,2013-08-19 05:53:00